Weather History for Barnwell, SC

Change the Weather History Date:

Tuesday, October 1, 2013

  Actual Average (KOGB) Record (KOGB)
Temperature  
Mean Temperature 66 °F 70 °F  
Max Temperature 82 °F 81 °F 94 °F (1986)
Min Temperature 51 °F 59 °F 40 °F (1967)
Degree Days  
Heating Degree Days 0 1  
Month to date heating degree days 1  
Since 1 July heating degree days 5  
Cooling Degree Days 2 6  
Month to date cooling degree days 6  
Year to date cooling degree days 2000  
Growing Degree Days 16 (Base 50)    
Moisture  
Dew Point 56 °F    
Average Humidity 73    
Maximum Humidity 100    
Minimum Humidity 37    
Precipitation  
Precipitation 0.00 in 0.15 in 3.63 in (1989)
Month to date precipitation 0.15  
Year to date precipitation 37.25  
Sea Level Pressure  
Sea Level Pressure 30.11 in    
Wind  
Wind Speed 1 mph (NNE)    
Max Wind Speed 8 mph    
Max Gust Speed -    
Visibility 10 miles    
Events      
T = Trace of Precipitation, MM = Missing Value Source: NWS Daily Summary

Daily Weather History Graph

Daily Weather History Graph

Search for Another Location

Airport:

Trip Planner

Search our weather history database for the weather conditions in past years. The results will help you decide how hot, cold, wet, or windy it might be!

Date:

Astronomy

Oct. 01, 2013 Rise Set
Actual Time 7:19 AM EDT 7:09 PM EDT
Civil Twilight 6:55 AM EDT 7:34 PM EDT
Nautical Twilight 6:26 AM EDT 8:03 PM EDT
Astronomical Twilight 5:57 AM EDT 8:31 PM EDT
Moon 4:01 AM EDT (10/1) 5:05 PM EDT (10/1)
Length of Visible Light 12h 39m
Length of Day
11h 49m
Waning Crescent, 12% of the Moon is Illuminated
Oct 1
Waning Crescent
Oct 4
New
Oct 11
First Quarter
Oct 18
Full
Oct 26
Last Quarter

Hourly Weather History & Observations

Time (EDT) Temp. Heat Index Dew Point Humidity Pressure Visibility Wind Dir Wind Speed Gust Speed Precip Events Conditions
12:15 AM 55.4 °F - 53.6 °F 94% 30.09 in 10.0 mi Calm Calm - N/A   Clear
12:35 AM 55.4 °F - 53.6 °F 94% 30.09 in 10.0 mi Calm Calm - N/A   Clear
12:55 AM 55.4 °F - 53.6 °F 94% 30.09 in 10.0 mi Calm Calm - N/A   Clear
1:15 AM 55.4 °F - 55.4 °F 100% 30.09 in 10.0 mi Calm Calm - N/A   Clear
1:35 AM 55.4 °F - 53.6 °F 94% 30.09 in 10.0 mi Calm Calm - N/A   Clear
1:55 AM 55.4 °F - 53.6 °F 94% 30.09 in 10.0 mi Calm Calm - N/A   Clear
2:15 AM 55.4 °F - 53.6 °F 94% 30.09 in 10.0 mi Calm Calm - N/A   Clear
2:35 AM 55.4 °F - 53.6 °F 94% 30.09 in 10.0 mi Calm Calm - N/A   Clear
2:55 AM 53.6 °F - 53.6 °F 100% 30.09 in 10.0 mi Calm Calm - N/A   Clear
3:15 AM 53.6 °F - 53.6 °F 100% 30.08 in 10.0 mi Calm Calm - N/A   Clear
3:35 AM 53.6 °F - 53.6 °F 100% 30.08 in 10.0 mi Calm Calm - N/A   Clear
3:55 AM 53.6 °F - 51.8 °F 94% 30.08 in 10.0 mi Calm Calm - N/A   Clear
4:15 AM 53.6 °F - 51.8 °F 94% 30.08 in 10.0 mi Calm Calm - N/A   Clear
4:35 AM 53.6 °F - 51.8 °F 94% 30.08 in 10.0 mi Calm Calm - N/A   Clear
4:55 AM 51.8 °F - 51.8 °F 100% 30.08 in 10.0 mi Calm Calm - N/A   Clear
5:15 AM 51.8 °F - 51.8 °F 100% 30.08 in 10.0 mi Calm Calm - N/A   Clear
5:35 AM 51.8 °F - 51.8 °F 100% 30.09 in 10.0 mi Calm Calm - N/A   Clear
5:55 AM 51.8 °F - 51.8 °F 100% 30.10 in 10.0 mi Calm Calm - N/A   Clear
6:15 AM 51.8 °F - 50.0 °F 94% 30.10 in 10.0 mi Calm Calm - N/A   Clear
6:35 AM 51.8 °F - 51.8 °F 100% 30.11 in 10.0 mi Calm Calm - N/A   Clear
6:55 AM 51.8 °F - 50.0 °F 94% 30.12 in 10.0 mi Calm Calm - N/A   Clear
7:15 AM 51.8 °F - 50.0 °F 94% 30.12 in 10.0 mi Calm Calm - N/A   Clear
7:35 AM 51.8 °F - 51.8 °F 100% 30.13 in 10.0 mi Calm Calm - N/A   Clear
7:55 AM 51.8 °F - 51.8 °F 100% 30.14 in 10.0 mi Calm Calm - N/A   Clear
8:15 AM 55.4 °F - 53.6 °F 94% 30.14 in 10.0 mi Calm Calm - N/A   Clear
8:35 AM 57.2 °F - 55.4 °F 94% 30.14 in 10.0 mi Calm Calm - N/A   Clear
8:55 AM 60.8 °F - 57.2 °F 88% 30.15 in 10.0 mi Calm Calm - N/A   Clear
9:15 AM 64.4 °F - 60.8 °F 88% 30.15 in 10.0 mi Calm Calm - N/A   Clear
9:35 AM 66.2 °F - 60.8 °F 83% 30.15 in 10.0 mi Calm Calm - N/A   Clear
9:55 AM 69.8 °F - 60.8 °F 73% 30.16 in 10.0 mi Calm Calm - N/A   Clear
10:15 AM 71.6 °F - 60.8 °F 69% 30.16 in 10.0 mi Calm Calm - N/A   Clear
10:35 AM 73.4 °F - 60.8 °F 65% 30.17 in 10.0 mi NW 5.8 mph - N/A   Clear
10:55 AM 73.4 °F - 60.8 °F 65% 30.17 in 10.0 mi Calm Calm - N/A   Clear
11:15 AM 75.2 °F - 57.2 °F 53% 30.16 in 10.0 mi Calm Calm - N/A   Clear
11:35 AM 75.2 °F - 57.2 °F 53% 30.16 in 10.0 mi NW 5.8 mph - N/A   Clear
11:55 AM 77.0 °F - 55.4 °F 47% 30.16 in 10.0 mi NE 5.8 mph - N/A   Clear
12:15 PM 78.8 °F - 55.4 °F 44% 30.15 in 10.0 mi NE 3.5 mph - N/A   Clear
12:35 PM 78.8 °F - 55.4 °F 44% 30.15 in 10.0 mi North 4.6 mph - N/A   Clear
12:55 PM 78.8 °F - 55.4 °F 44% 30.14 in 10.0 mi NE 3.5 mph - N/A   Clear
1:15 PM 80.6 °F 80.5 °F 55.4 °F 42% 30.13 in 10.0 mi ENE 4.6 mph - N/A   Clear
1:35 PM 78.8 °F - 55.4 °F 44% 30.13 in 10.0 mi NNE 3.5 mph - N/A   Clear
1:55 PM 78.8 °F - 55.4 °F 44% 30.12 in 10.0 mi NE 4.6 mph - N/A   Partly Cloudy
2:15 PM 80.6 °F 80.5 °F 55.4 °F 42% 30.10 in 10.0 mi East 4.6 mph - N/A   Partly Cloudy
2:35 PM 80.6 °F 80.3 °F 53.6 °F 39% 30.09 in 10.0 mi NNE 4.6 mph - N/A   Partly Cloudy
2:55 PM 80.6 °F 80.3 °F 53.6 °F 39% 30.09 in 10.0 mi NNW 3.5 mph - N/A   Clear
3:15 PM 82.4 °F 81.4 °F 53.6 °F 37% 30.08 in 10.0 mi NNE 8.1 mph - N/A   Clear
3:35 PM 82.4 °F 81.4 °F 53.6 °F 37% 30.08 in 10.0 mi North 6.9 mph - N/A   Clear
3:55 PM 82.4 °F 81.4 °F 53.6 °F 37% 30.07 in 10.0 mi East 6.9 mph - N/A   Clear
4:15 PM 82.4 °F 81.4 °F 53.6 °F 37% 30.07 in 10.0 mi Calm Calm - N/A   Clear
4:35 PM 82.4 °F 81.7 °F 55.4 °F 39% 30.06 in 10.0 mi North 3.5 mph - N/A   Clear
4:55 PM 82.4 °F 81.7 °F 55.4 °F 39% 30.06 in 10.0 mi Calm Calm - N/A   Clear
5:15 PM 82.4 °F 81.7 °F 55.4 °F 39% 30.06 in 10.0 mi ENE 6.9 mph - N/A   Clear
5:35 PM 82.4 °F 81.7 °F 55.4 °F 39% 30.06 in 10.0 mi ENE 6.9 mph - N/A   Clear
5:55 PM 80.6 °F 80.5 °F 55.4 °F 42% 30.07 in 10.0 mi Calm Calm - N/A   Clear
6:15 PM 80.6 °F 80.5 °F 55.4 °F 42% 30.07 in 10.0 mi Calm Calm - N/A   Clear
6:35 PM 80.6 °F 80.5 °F 55.4 °F 42% 30.07 in 10.0 mi Calm Calm - N/A   Clear
6:55 PM 78.8 °F - 57.2 °F 47% 30.07 in 10.0 mi Calm Calm - N/A   Clear
7:15 PM 75.2 °F - 57.2 °F 53% 30.07 in 10.0 mi Calm Calm - N/A   Clear
7:35 PM 71.6 °F - 59.0 °F 64% 30.08 in 10.0 mi Calm Calm - N/A   Clear
7:55 PM 69.8 °F - 60.8 °F 73% 30.08 in 10.0 mi Calm Calm - N/A   Clear
8:15 PM 68.0 °F - 60.8 °F 78% 30.09 in 10.0 mi Calm Calm - N/A   Clear
8:35 PM 66.2 °F - 59.0 °F 78% 30.09 in 10.0 mi Calm Calm - N/A   Clear
8:55 PM 66.2 °F - 59.0 °F 78% 30.10 in 10.0 mi Calm Calm - N/A   Clear
9:15 PM 64.4 °F - 59.0 °F 83% 30.11 in 10.0 mi Calm Calm - N/A   Clear
9:35 PM 64.4 °F - 59.0 °F 83% 30.11 in 10.0 mi Calm Calm - N/A   Clear
9:55 PM 62.6 °F - 59.0 °F 88% 30.12 in 10.0 mi Calm Calm - N/A   Clear
10:15 PM 62.6 °F - 59.0 °F 88% 30.12 in 10.0 mi Calm Calm - N/A   Clear
10:35 PM 62.6 °F - 59.0 °F 88% 30.13 in 10.0 mi Calm Calm - N/A   Clear
10:55 PM 62.6 °F - 59.0 °F 88% 30.13 in 10.0 mi Calm Calm - N/A   Clear
11:15 PM 60.8 °F - 57.2 °F 88% 30.14 in 10.0 mi Calm Calm - N/A   Clear
11:35 PM 60.8 °F - 57.2 °F 88% 30.14 in 10.0 mi Calm Calm - N/A   Clear
11:55 PM 60.8 °F - 57.2 °F 88% 30.14 in 10.0 mi Calm Calm - N/A   Clear